Location: Noordwijk
(52.2400°N, 4.4500°E)
Time: 16:09:42
(UTC+00:00)

CAS-4A - Pass Details

Date: 09 December 2022
Orbit: 514 x 531 km, 43.0° (Epoch: 01 February)

Event Time Altitude Azimuth Distance (km) Brightness Sun altitude
Exits shadow 06:28:02 - 245° (WSW) 2,336 ? -10.1°
Reaches altitude 10° 06:29:42 10° 234° (SW) 1,774 ? -9.9°
Maximum altitude 06:32:53 22° 183° (S) 1,183 ? -9.5°
Drops below altitude 10° 06:36:05 10° 131° (SE) 1,782 ? -9.0°
Sets 06:38:40 0° 116° (ESE) 2,674 ? -8.7°
